Time,TemperatureF,DewpointF,PressureIn,WindDirection,WindDirectionDegrees,WindSpeedMPH,WindSpeedGustMPH,Humidity,HourlyPrecipIn,Conditions,Clouds,dailyrainin,SoftwareType,DateUTC
2013-01-20 00:09:00,66.8,64.0,30.14,East,79,0.0,-999.0,91,-99.99,,,0.00,weatherlink.com 1.10,2013-01-20 05:09:00,
2013-01-20 00:24:00,66.7,64.0,30.13,NE,49,3.0,-999.0,91,-99.99,,,0.00,weatherlink.com 1.10,2013-01-20 05:24:00,
2013-01-20 00:39:00,66.5,64.0,30.13,East,85,0.0,-999.0,92,-99.99,,,0.00,weatherlink.com 1.10,2013-01-20 05:39:00,
2013-01-20 00:54:00,66.5,64.0,30.12,East,90,0.0,-999.0,92,-99.99,,,0.00,weatherlink.com 1.10,2013-01-20 05:54:00,
2013-01-20 01:09:00,66.4,64.0,30.12,ENE,65,0.0,-999.0,92,-99.99,,,0.00,weatherlink.com 1.10,2013-01-20 06:09:00,
2013-01-20 01:24:00,66.2,64.0,30.12,ENE,66,0.0,-999.0,93,-99.99,,,0.00,weatherlink.com 1.10,2013-01-20 06:24:00,
2013-01-20 01:39:00,66.1,64.0,30.12,ENE,66,0.0,-999.0,93,-99.99,,,0.00,weatherlink.com 1.10,2013-01-20 06:39:00,
2013-01-20 01:54:00,66.0,64.0,30.12,East,80,2.0,-999.0,93,-99.99,,,0.00,weatherlink.com 1.10,2013-01-20 06:54:00,
2013-01-20 02:09:00,65.9,64.0,30.11,ENE,68,0.0,-999.0,93,-99.99,,,0.00,weatherlink.com 1.10,2013-01-20 07:09:00,
2013-01-20 02:24:00,65.8,64.0,30.12,ENE,63,0.0,-999.0,93,-99.99,,,0.00,weatherlink.com 1.10,2013-01-20 07:24:00,
2013-01-20 02:39:00,65.8,64.0,30.11,East,88,3.0,-999.0,94,-99.99,,,0.00,weatherlink.com 1.10,2013-01-20 07:39:00,
2013-01-20 02:54:00,65.7,64.0,30.11,ENE,74,0.0,-999.0,94,-99.99,,,0.00,weatherlink.com 1.10,2013-01-20 07:54:00,
2013-01-20 03:09:00,65.6,64.0,30.11,ENE,69,0.0,-999.0,94,-99.99,,,0.00,weatherlink.com 1.10,2013-01-20 08:09:00,
2013-01-20 03:24:00,65.5,64.0,30.12,ENE,76,0.0,-999.0,94,-99.99,,,0.00,weatherlink.com 1.10,2013-01-20 08:24:00,
2013-01-20 03:39:00,65.4,64.0,30.12,ENE,71,0.0,-999.0,94,-99.99,,,0.00,weatherlink.com 1.10,2013-01-20 08:39:00,
2013-01-20 03:54:00,65.4,64.0,30.12,ENE,71,2.0,-999.0,95,-99.99,,,0.00,weatherlink.com 1.10,2013-01-20 08:54:00,
2013-01-20 04:09:00,65.4,64.0,30.12,ENE,63,0.0,-999.0,94,-99.99,,,0.00,weatherlink.com 1.10,2013-01-20 09:09:00,
2013-01-20 04:24:00,65.3,64.0,30.12,NE,53,0.0,-999.0,94,-99.99,,,0.00,weatherlink.com 1.10,2013-01-20 09:24:00,
2013-01-20 04:39:00,65.5,64.0,30.11,East,82,3.0,-999.0,95,-99.99,,,0.00,weatherlink.com 1.10,2013-01-20 09:39:00,
2013-01-20 04:54:00,65.5,64.0,30.12,ENE,68,0.0,-999.0,95,-99.99,,,0.00,weatherlink.com 1.10,2013-01-20 09:54:00,
2013-01-20 05:09:00,65.4,64.0,30.12,NE,55,0.0,-999.0,95,-99.99,,,0.00,weatherlink.com 1.10,2013-01-20 10:09:00,
2013-01-20 05:24:00,65.2,64.0,30.12,NE,38,0.0,-999.0,95,-99.99,,,0.00,weatherlink.com 1.10,2013-01-20 10:24:00,
2013-01-20 05:39:00,65.1,64.0,30.12,NE,44,0.0,-999.0,95,-99.99,,,0.00,weatherlink.com 1.10,2013-01-20 10:39:00,
2013-01-20 05:54:00,65.0,64.0,30.12,ENE,69,0.0,-999.0,95,-99.99,,,0.00,weatherlink.com 1.10,2013-01-20 10:54:00,
2013-01-20 06:09:00,64.9,64.0,30.12,ENE,73,0.0,-999.0,96,-99.99,,,0.00,weatherlink.com 1.10,2013-01-20 11:09:00,
2013-01-20 06:24:00,64.9,64.0,30.12,East,86,3.0,-999.0,96,-99.99,,,0.00,weatherlink.com 1.10,2013-01-20 11:24:00,
2013-01-20 06:39:00,64.8,64.0,30.12,NE,51,3.0,-999.0,96,-99.99,,,0.00,weatherlink.com 1.10,2013-01-20 11:39:00,
2013-01-20 06:54:00,64.7,64.0,30.13,NE,51,0.0,-999.0,96,-99.99,,,0.00,weatherlink.com 1.10,2013-01-20 11:54:00,
2013-01-20 07:09:00,64.7,64.0,30.14,NE,51,0.0,-999.0,96,-99.99,,,0.00,weatherlink.com 1.10,2013-01-20 12:09:00,
2013-01-20 07:24:00,64.7,64.0,30.15,NE,38,0.0,-999.0,96,-99.99,,,0.00,weatherlink.com 1.10,2013-01-20 12:24:00,
2013-01-20 07:39:00,64.7,64.0,30.16,NE,39,0.0,-999.0,96,-99.99,,,0.00,weatherlink.com 1.10,2013-01-20 12:39:00,
2013-01-20 07:54:00,64.8,64.0,30.16,NE,42,2.0,-999.0,96,-99.99,,,0.00,weatherlink.com 1.10,2013-01-20 12:54:00,
2013-01-20 08:09:00,65.0,64.0,30.16,NE,55,1.0,-999.0,96,-99.99,,,0.00,weatherlink.com 1.10,2013-01-20 13:09:00,
2013-01-20 08:24:00,65.3,64.0,30.16,ENE,66,0.0,-999.0,96,-99.99,,,0.00,weatherlink.com 1.10,2013-01-20 13:24:00,
2013-01-20 08:39:00,65.6,65.0,30.17,ENE,65,0.0,-999.0,96,-99.99,,,0.00,weatherlink.com 1.10,2013-01-20 13:39:00,
2013-01-20 08:54:00,66.0,65.0,30.17,ENE,74,0.0,-999.0,95,-99.99,,,0.00,weatherlink.com 1.10,2013-01-20 13:54:00,
2013-01-20 09:09:00,66.6,65.0,30.17,NNE,22,1.0,-999.0,95,-99.99,,,0.00,weatherlink.com 1.10,2013-01-20 14:09:00,
2013-01-20 09:24:00,67.2,66.0,30.18,ENE,76,2.0,-999.0,94,-99.99,,,0.00,weatherlink.com 1.10,2013-01-20 14:24:00,
2013-01-20 09:39:00,68.1,66.0,30.18,ENE,78,0.0,-999.0,94,-99.99,,,0.00,weatherlink.com 1.10,2013-01-20 14:39:00,
2013-01-20 09:54:00,69.0,66.0,30.19,NNE,15,0.0,-999.0,91,-99.99,,,0.00,weatherlink.com 1.10,2013-01-20 14:54:00,
2013-01-20 10:09:00,69.7,67.0,30.19,ENE,63,0.0,-999.0,90,-99.99,,,0.00,weatherlink.com 1.10,2013-01-20 15:09:00,
2013-01-20 10:24:00,70.5,67.0,30.18,NNE,28,0.0,-999.0,89,-99.99,,,0.00,weatherlink.com 1.10,2013-01-20 15:24:00,
2013-01-20 10:40:00,71.5,68.0,30.17,East,101,0.0,-999.0,87,-99.99,,,0.00,weatherlink.com 1.10,2013-01-20 15:40:00,
2013-01-20 10:55:00,72.5,68.0,30.16,ENE,75,0.0,-999.0,86,-99.99,,,0.00,weatherlink.com 1.10,2013-01-20 15:55:00,
2013-01-20 11:10:00,73.5,69.0,30.15,NE,42,1.0,-999.0,85,-99.99,,,0.00,weatherlink.com 1.10,2013-01-20 16:10:00,
2013-01-20 11:25:00,74.9,69.0,30.14,ENE,65,0.0,-999.0,82,-99.99,,,0.00,weatherlink.com 1.10,2013-01-20 16:25:00,
2013-01-20 11:40:00,75.7,69.0,30.14,NNE,20,0.0,-999.0,80,-99.99,,,0.00,weatherlink.com 1.10,2013-01-20 16:40:00,
2013-01-20 11:55:00,76.2,68.0,30.13,NNE,30,0.0,-999.0,75,-99.99,,,0.00,weatherlink.com 1.10,2013-01-20 16:55:00,
2013-01-20 12:25:00,80.0,69.0,30.10,NE,53,0.0,-999.0,69,-99.99,,,0.00,weatherlink.com 1.10,2013-01-20 17:25:00,
2013-01-20 12:40:00,79.1,69.0,30.10,NNE,22,0.0,-999.0,71,-99.99,,,0.00,weatherlink.com 1.10,2013-01-20 17:40:00,
2013-01-20 12:55:00,79.7,69.0,30.09,NW,306,6.0,-999.0,70,-99.99,,,0.00,weatherlink.com 1.10,2013-01-20 17:55:00,
2013-01-20 13:10:00,80.5,69.0,30.08,SE,137,0.0,-999.0,68,-99.99,,,0.00,weatherlink.com 1.10,2013-01-20 18:10:00,
2013-01-20 13:25:00,79.7,69.0,30.07,NE,38,0.0,-999.0,69,-99.99,,,0.00,weatherlink.com 1.10,2013-01-20 18:25:00,
2013-01-20 13:40:00,79.1,68.0,30.07,NNE,31,2.0,-999.0,69,-99.99,,,0.00,weatherlink.com 1.10,2013-01-20 18:40:00,
2013-01-20 13:55:00,79.0,68.0,30.07,NW,307,1.0,-999.0,69,-99.99,,,0.00,weatherlink.com 1.10,2013-01-20 18:55:00,
2013-01-20 14:10:00,78.3,69.0,30.07,WNW,284,0.0,-999.0,74,-99.99,,,0.00,weatherlink.com 1.10,2013-01-20 19:10:00,
2013-01-20 14:25:00,77.1,69.0,30.06,WNW,283,4.0,-999.0,76,-99.99,,,0.00,weatherlink.com 1.10,2013-01-20 19:25:00,
2013-01-20 14:40:00,76.6,69.0,30.05,WNW,292,7.0,-999.0,77,-99.99,,,0.00,weatherlink.com 1.10,2013-01-20 19:40:00,
2013-01-20 14:55:00,76.2,69.0,30.05,WNW,290,4.0,-999.0,77,-99.99,,,0.00,weatherlink.com 1.10,2013-01-20 19:55:00,
2013-01-20 15:10:00,75.5,68.0,30.05,West,267,2.0,-999.0,77,-99.99,,,0.00,weatherlink.com 1.10,2013-01-20 20:10:00,
2013-01-20 15:25:00,74.8,68.0,30.05,WNW,286,7.0,-999.0,78,-99.99,,,0.00,weatherlink.com 1.10,2013-01-20 20:25:00,
2013-01-20 15:40:00,74.2,67.0,30.06,WNW,284,6.0,-999.0,79,-99.99,,,0.00,weatherlink.com 1.10,2013-01-20 20:40:00,
2013-01-20 16:10:00,73.6,68.0,30.06,NW,308,8.0,-999.0,82,-99.99,,,0.00,weatherlink.com 1.10,2013-01-20 21:10:00,
2013-01-20 16:25:00,73.3,68.0,30.06,WNW,298,1.0,-999.0,83,-99.99,,,0.00,weatherlink.com 1.10,2013-01-20 21:25:00,
2013-01-20 16:40:00,73.2,69.0,30.06,NNW,336,2.0,-999.0,85,-99.99,,,0.00,weatherlink.com 1.10,2013-01-20 21:40:00,
2013-01-20 16:55:00,72.6,68.0,30.06,NW,311,4.0,-999.0,86,-99.99,,,0.00,weatherlink.com 1.10,2013-01-20 21:55:00,
2013-01-20 17:10:00,72.2,68.0,30.07,West,281,4.0,-999.0,86,-99.99,,,0.00,weatherlink.com 1.10,2013-01-20 22:10:00,
2013-01-20 17:25:00,71.7,68.0,30.07,WNW,292,5.0,-999.0,87,-99.99,,,0.00,weatherlink.com 1.10,2013-01-20 22:25:00,
2013-01-20 17:40:00,70.9,67.0,30.07,WNW,292,0.0,-999.0,88,-99.99,,,0.00,weatherlink.com 1.10,2013-01-20 22:40:00,
2013-01-20 17:55:00,70.5,67.0,30.07,WNW,303,0.0,-999.0,88,-99.99,,,0.00,weatherlink.com 1.10,2013-01-20 22:55:00,
2013-01-20 18:10:00,70.2,67.0,30.07,NW,305,0.0,-999.0,89,-99.99,,,0.00,weatherlink.com 1.10,2013-01-20 23:10:00,
2013-01-20 18:25:00,69.9,67.0,30.07,NW,305,0.0,-999.0,89,-99.99,,,0.00,weatherlink.com 1.10,2013-01-20 23:25:00,
2013-01-20 18:40:00,69.4,66.0,30.07,NW,305,0.0,-999.0,90,-99.99,,,0.00,weatherlink.com 1.10,2013-01-20 23:40:00,
2013-01-20 18:55:00,69.1,66.0,30.07,NW,305,0.0,-999.0,91,-99.99,,,0.00,weatherlink.com 1.10,2013-01-20 23:55:00,
2013-01-20 19:10:00,68.8,66.0,30.08,NW,305,0.0,-999.0,92,-99.99,,,0.00,weatherlink.com 1.10,2013-01-21 00:10:00,
2013-01-20 19:25:00,68.6,66.0,30.08,NW,306,0.0,-999.0,92,-99.99,,,0.00,weatherlink.com 1.10,2013-01-21 00:25:00,
2013-01-20 19:40:00,68.4,66.0,30.08,NW,306,0.0,-999.0,92,-99.99,,,0.00,weatherlink.com 1.10,2013-01-21 00:40:00,
2013-01-20 19:55:00,68.3,66.0,30.08,NW,306,0.0,-999.0,93,-99.99,,,0.00,weatherlink.com 1.10,2013-01-21 00:55:00,
2013-01-20 20:10:00,67.9,66.0,30.08,NW,306,0.0,-999.0,93,-99.99,,,0.00,weatherlink.com 1.10,2013-01-21 01:10:00,
2013-01-20 20:25:00,67.8,66.0,30.08,NW,306,0.0,-999.0,94,-99.99,,,0.00,weatherlink.com 1.10,2013-01-21 01:25:00,
2013-01-20 20:40:00,67.6,66.0,30.09,NW,306,0.0,-999.0,94,-99.99,,,0.00,weatherlink.com 1.10,2013-01-21 01:40:00,
2013-01-20 20:55:00,67.7,66.0,30.08,NW,306,0.0,-999.0,95,-99.99,,,0.00,weatherlink.com 1.10,2013-01-21 01:55:00,
2013-01-20 21:10:00,67.6,66.0,30.09,NW,306,0.0,-999.0,94,-99.99,,,0.00,weatherlink.com 1.10,2013-01-21 02:10:00,
2013-01-20 21:25:00,67.5,66.0,30.09,NW,306,0.0,-999.0,95,-99.99,,,0.00,weatherlink.com 1.10,2013-01-21 02:25:00,
2013-01-20 21:41:00,67.6,66.0,30.10,NW,306,0.0,-999.0,95,-99.99,,,0.00,weatherlink.com 1.10,2013-01-21 02:41:00,
2013-01-20 21:56:00,67.7,66.0,30.10,NW,319,0.0,-999.0,95,-99.99,,,0.00,weatherlink.com 1.10,2013-01-21 02:56:00,
2013-01-20 22:11:00,68.0,67.0,30.10,NNW,336,0.0,-999.0,95,-99.99,,,0.00,weatherlink.com 1.10,2013-01-21 03:11:00,
2013-01-20 22:26:00,68.0,66.0,30.09,ENE,69,4.0,-999.0,94,-99.99,,,0.00,weatherlink.com 1.10,2013-01-21 03:26:00,
2013-01-20 22:41:00,68.0,66.0,30.09,ENE,72,2.0,-999.0,93,-99.99,,,0.00,weatherlink.com 1.10,2013-01-21 03:41:00,
2013-01-20 22:56:00,68.1,65.0,30.09,ENE,78,0.0,-999.0,91,-99.99,,,0.00,weatherlink.com 1.10,2013-01-21 03:56:00,
2013-01-20 23:11:00,68.0,65.0,30.09,ENE,69,0.0,-999.0,91,-99.99,,,0.00,weatherlink.com 1.10,2013-01-21 04:11:00,
2013-01-20 23:26:00,68.0,65.0,30.09,ENE,70,0.0,-999.0,91,-99.99,,,0.00,weatherlink.com 1.10,2013-01-21 04:26:00,
2013-01-20 23:41:00,68.0,66.0,30.09,ENE,75,2.0,-999.0,92,-99.99,,,0.00,weatherlink.com 1.10,2013-01-21 04:41:00,
2013-01-20 23:56:00,67.9,65.0,30.08,ENE,68,0.0,-999.0,91,-99.99,,,0.00,weatherlink.com 1.10,2013-01-21 04:56:00,